User: anonymous   Login
Location: Unspecified
(0.0000°N, 0.0000°E)
Time: 18:20:10
(UTC+00:00)
Language:

LEMUR 2 ROUNDTRIPPER - Orbit

View from above orbital plane
View from above orbital plane
View from above satellite
View from above satellite

Ground track
Ground track

The orbit is defined by the following mean orbital elements,

1 62711U          26145.13418036 +.00000000 +00000-0 +51886-3 0 00005
2 62711  97.7230 227.8571 0003532 193.2294 166.8839 15.03348739    06
Epoch (UTC): 25 May 2026 03:13:13
Eccentricity: 0.0003532
inclination: 97.7230°
perigee height: 554 km
apogee height: 559 km
right ascension of ascending node: 227.8571°
argument of perigee: 193.2294°
revolutions per day: 15.03348739
mean anomaly at epoch: 166.8839°

The dashed part of the orbit path shows where the satellite is in the earth's shadow,  

DLR